Powrót do katalogu

PSLV R/B

AktywnyHEO
NORAD 41242·ROCKET BODY·🇮🇳 India

Wystrzelony Jan 20, 2016 z Satish Dhawan Space Centre

Loading…

Następne Przeloty (najbliższe 24 godziny)

TLE

ŚwieżeSource: Space-Track

Epoka: Sep 14, 2026, 07:25 UTC

1 41242U 16003B   26257.30965262  .00001440  00000-0  60303-3 0  9992
2 41242  19.1423   0.3188 5970266 275.8740  23.1443  4.04539250154349

Śledź PSLV R/B w czasie rzeczywistym z AllMySat

Download on the App Store